Home > Weather > Accra > Past weeks

Flag for Ghana Past Weather in Accra, Ghana — Yesterday and Last 2 Weeks

Now
81 °F

Partly sunny.


Feels Like: 85 °F
Forecast: N/A
Wind: 15 mph from Southwest

Location: Accra Airport

Current Time: Aug 27, 2016 at 5:20:03 PM

Latest Report: Aug 27, 2016 at 4:00 PM


Visibility: N/A

Pressure: 29.83 "Hg

Humidity: 79%

Dew Point: 73 °F

Location of AccraLocation

Past Weather in Accra — Graph

°F

Accra Temperature Yesterday

Maximum temperature yesterday: 82 °F (at 11:00 AM)
Minimum temperature yesterday: 75 °F (at 12:00 AM)
Average temperature yesterday: 78 °F

High & Low Weather Summary for the Past Weeks

 TemperatureHumidityPressure
High84 °F (Aug 16, 12:00 PM)100% (Aug 20, 12:00 AM)30.01 "Hg (Aug 20, 12:00 AM)
Low73 °F (Aug 15, 6:00 AM)58% (Aug 16, 12:00 PM)29.83 "Hg (Aug 24, 4:00 PM)
Average77 °F86%29.93 "Hg
* Reported Aug 12 4:00 PM — Aug 27 4:00 PM, Accra, Weather by CustomWeather, © 2016

Note: Actual official high and low records may vary slightly from our data, if they occured in-between our weather recording intervals... More about our weather records

Advertising

Accra Weather History for the Previous 24 Hours

Scroll right to see more
 ConditionsComfort  
Time TempWeatherWind HumidityBarometerVisibility
4:00 PM
Sat, Aug 27
81 °FPartly sunny.15 mph79%29.83 "HgN/A
3:00 PM79 °FPartly sunny.15 mph79%29.83 "HgN/A
2:00 PM79 °FPartly sunny.16 mph84%29.86 "HgN/A
1:00 PM79 °FMostly cloudy.15 mph84%29.89 "HgN/A
12:00 PM81 °FOvercast.15 mph79%29.92 "HgN/A
11:00 AM82 °FPartly sunny.14 mph70%29.92 "HgN/A
10:00 AM81 °FPassing clouds.14 mph74%29.92 "HgN/A
9:00 AM77 °FPassing clouds.14 mph83%29.92 "HgN/A
8:00 AM77 °FPartly sunny.14 mph83%29.92 "HgN/A
7:00 AM75 °FScattered clouds.12 mph89%29.89 "HgN/A
6:00 AM75 °FPassing clouds.10 mph89%29.86 "HgN/A
5:00 AM75 °FClear.13 mph89%29.86 "Hg10 mi
4:00 AM75 °FClear.12 mph89%29.83 "Hg10 mi
2:00 AM77 °FClear.7 mph83%29.86 "Hg10 mi
1:00 AM77 °FClear.8 mph83%29.86 "Hg10 mi
12:00 AM77 °FClear.9 mph83%29.89 "Hg10 mi
11:00 PM
Fri, Aug 26
77 °FPassing clouds.9 mph83%29.92 "HgN/A
10:00 PM77 °FClear.10 mph83%29.92 "Hg10 mi
9:00 PM77 °FClear.12 mph83%29.89 "Hg10 mi
8:00 PM79 °FClear.13 mph79%29.86 "Hg10 mi
7:00 PM79 °FClear.14 mph79%29.86 "Hg10 mi
6:00 PM79 °FSunny.13 mph79%29.86 "Hg10 mi
5:00 PM81 °FSunny.15 mph74%29.83 "Hg10 mi
Weather by CustomWeather, © 2016

See weather overviewHow to use our weather pages